Location: Gipe Farm
(40.9466°N, 95.5370°W)
Time: 01:55:07
(UTC-05:00)

Cosmos 1842 - Visible Passes

Search period start: 27 March 2015 00:00
Search period end: 06 April 2015 00:00
Orbit: 531 x 549 km, 82.5° (Epoch: 26 March)

Date Brightness Start Highest point End Pass type
(mag) Time Alt. Az. Time Alt. Az. Time Alt. Az.
02 Apr 3.3 06:37:01 10° SSW 06:40:59 70° W 06:44:56 10° N visible
03 Apr 3.3 06:29:39 10° SSW 06:33:37 69° W 06:37:35 10° N visible
04 Apr 3.2 06:22:17 10° SSW 06:26:14 68° W 06:30:12 10° N visible
05 Apr 3.2 06:14:55 10° SSW 06:18:52 67° W 06:22:49 10° N visible
